Stündliche Wetter Czyzow

Heute, 31 Oktober, Samstag

Zeit Temperatur Niederschläge Wind Luftdruck Luftfeuchtigkeit
00:00 +7°C° 0.8 mm 2 m/S 731 mmHg 94%
01:00 +7°C° 0 mm 2 m/S 731 mmHg 95%
02:00 +7°C° 0 mm 2 m/S 731 mmHg 94%
03:00 +6°C° 0 mm 2 m/S 732 mmHg 93%
04:00 +6°C° 0 mm 2 m/S 732 mmHg 92%
05:00 +6°C° 0 mm 2 m/S 732 mmHg 92%
06:00 +5°C° 0 mm 2 m/S 733 mmHg 92%
07:00 +5°C° 0 mm 2 m/S 734 mmHg 91%
08:00 +6°C° 0 mm 2 m/S 735 mmHg 84%
09:00 +7°C° 0 mm 2 m/S 735 mmHg 77%
10:00 +9°C° 0 mm 1 m/S 735 mmHg 70%
11:00 +9°C° 0 mm 2 m/S 735 mmHg 66%
12:00 +9°C° 0 mm 2 m/S 736 mmHg 63%
13:00 +10°C° 0 mm 2 m/S 736 mmHg 59%
14:00 +9°C° 0 mm 2 m/S 736 mmHg 64%
15:00 +9°C° 0 mm 1 m/S 736 mmHg 68%
16:00 +9°C° 0 mm 1 m/S 736 mmHg 72%
17:00 +8°C° 0 mm 1 m/S 736 mmHg 75%
18:00 +7°C° 0 mm 1 m/S 736 mmHg 78%
19:00 +6°C° 0 mm 1 m/S 736 mmHg 81%
20:00 +6°C° 0 mm 1 m/S 736 mmHg 82%
21:00 +5°C° 0 mm 0 m/S 736 mmHg 83%
22:00 +5°C° 0 mm 0 m/S 736 mmHg 84%
23:00 +5°C° 0 mm 0 m/S 736 mmHg 85%

Morgen, 1 November, Sonntag

Zeit Temperatur Niederschläge Wind Luftdruck Luftfeuchtigkeit
00:00 +5°C° 0 mm 1 m/S 736 mmHg 86%
01:00 +5°C° 0 mm 1 m/S 736 mmHg 88%
02:00 +5°C° 0 mm 1 m/S 736 mmHg 89%
03:00 +4°C° 0 mm 1 m/S 736 mmHg 90%
04:00 +4°C° 0 mm 1 m/S 735 mmHg 91%
05:00 +4°C° 0 mm 1 m/S 735 mmHg 91%
06:00 +4°C° 0 mm 1 m/S 735 mmHg 91%
07:00 +4°C° 0 mm 1 m/S 735 mmHg 91%
08:00 +5°C° 0 mm 2 m/S 735 mmHg 85%
09:00 +6°C° 0 mm 2 m/S 735 mmHg 78%
10:00 +8°C° 0 mm 2 m/S 734 mmHg 72%
11:00 +8°C° 0 mm 2 m/S 734 mmHg 68%
12:00 +9°C° 0 mm 2 m/S 734 mmHg 64%
13:00 +10°C° 0 mm 2 m/S 733 mmHg 59%
14:00 +9°C° 0 mm 2 m/S 733 mmHg 63%
15:00 +9°C° 0 mm 2 m/S 732 mmHg 66%
16:00 +8°C° 0 mm 2 m/S 732 mmHg 70%
17:00 +8°C° 0 mm 2 m/S 732 mmHg 70%
18:00 +8°C° 0 mm 2 m/S 732 mmHg 70%
19:00 +7°C° 0 mm 2 m/S 731 mmHg 70%
20:00 +7°C° 0 mm 2 m/S 731 mmHg 72%
21:00 +7°C° 0 mm 2 m/S 731 mmHg 73%
22:00 +7°C° 0 mm 2 m/S 730 mmHg 75%
23:00 +7°C° 0.2 mm 3 m/S 730 mmHg 81%

übermorgen, 2 November, Montag

Zeit Temperatur Niederschläge Wind Luftdruck Luftfeuchtigkeit
00:00 +8°C° 0.2 mm 3 m/S 730 mmHg 87%
01:00 +8°C° 0.2 mm 3 m/S 730 mmHg 93%
02:00 +8°C° 0.5 mm 3 m/S 730 mmHg 94%
03:00 +8°C° 0.5 mm 3 m/S 729 mmHg 95%
04:00 +8°C° 0.5 mm 3 m/S 729 mmHg 95%
05:00 +8°C° 0.2 mm 3 m/S 729 mmHg 96%
06:00 +9°C° 0.2 mm 3 m/S 730 mmHg 96%
07:00 +9°C° 0.2 mm 3 m/S 730 mmHg 97%
08:00 +10°C° 0.1 mm 3 m/S 730 mmHg 94%
09:00 +11°C° 0.1 mm 3 m/S 730 mmHg 91%
10:00 +12°C° 0.1 mm 3 m/S 730 mmHg 88%
11:00 +12°C° 0 mm 3 m/S 731 mmHg 89%
12:00 +12°C° 0 mm 3 m/S 731 mmHg 90%
13:00 +13°C° 0 mm 3 m/S 731 mmHg 91%
14:00 +13°C° 0 mm 2 m/S 731 mmHg 92%
15:00 +13°C° 0 mm 2 m/S 731 mmHg 94%
16:00 +13°C° 0 mm 2 m/S 731 mmHg 95%
17:00 +13°C° 0.1 mm 2 m/S 731 mmHg 96%
18:00 +13°C° 0.1 mm 2 m/S 731 mmHg 96%
19:00 +12°C° 0.1 mm 2 m/S 731 mmHg 97%
20:00 +13°C° 0.2 mm 2 m/S 732 mmHg 97%
21:00 +13°C° 0.2 mm 2 m/S 732 mmHg 97%
22:00 +13°C° 0.2 mm 2 m/S 732 mmHg 97%
23:00 +12°C° 0 mm 2 m/S 732 mmHg 97%

3 November, Dienstag

Zeit Temperatur Niederschläge Wind Luftdruck Luftfeuchtigkeit
00:00 +12°C° 0 mm 2 m/S 732 mmHg 97%
01:00 +12°C° 0 mm 2 m/S 732 mmHg 96%
02:00 +13°C° 0 mm 2 m/S 732 mmHg 96%
03:00 +13°C° 0 mm 2 m/S 732 mmHg 95%
04:00 +13°C° 0 mm 2 m/S 732 mmHg 95%
05:00 +13°C° 0 mm 2 m/S 732 mmHg 95%
06:00 +13°C° 0 mm 2 m/S 733 mmHg 94%
07:00 +13°C° 0 mm 2 m/S 733 mmHg 94%
08:00 +13°C° 0 mm 3 m/S 733 mmHg 91%
09:00 +13°C° 0 mm 3 m/S 733 mmHg 89%
10:00 +14°C° 0 mm 3 m/S 734 mmHg 87%
11:00 +15°C° 0 mm 4 m/S 734 mmHg 84%
12:00 +17°C° 0 mm 4 m/S 734 mmHg 81%
13:00 +17°C° 0 mm 4 m/S 734 mmHg 79%
14:00 +15°C° 0.1 mm 4 m/S 735 mmHg 81%
15:00 +14°C° 0.1 mm 4 m/S 735 mmHg 83%
16:00 +13°C° 0.1 mm 5 m/S 735 mmHg 86%
17:00 +13°C° 0 mm 4 m/S 735 mmHg 82%
18:00 +12°C° 0 mm 4 m/S 736 mmHg 79%
19:00 +12°C° 0 mm 4 m/S 736 mmHg 76%
20:00 +11°C° 0 mm 4 m/S 737 mmHg 76%
21:00 +11°C° 0 mm 3 m/S 737 mmHg 76%
22:00 +10°C° 0 mm 2 m/S 737 mmHg 76%
23:00 +10°C° 0 mm 2 m/S 738 mmHg 76%

4 November, Mittwoch

Zeit Temperatur Niederschläge Wind Luftdruck Luftfeuchtigkeit
00:00 +10°C° 0 mm 2 m/S 738 mmHg 76%
01:00 +9°C° 0 mm 2 m/S 738 mmHg 77%
02:00 +9°C° 0 mm 2 m/S 738 mmHg 77%
03:00 +9°C° 0 mm 2 m/S 738 mmHg 78%
04:00 +9°C° 0 mm 2 m/S 739 mmHg 79%
05:00 +9°C° 0.1 mm 2 m/S 739 mmHg 81%
06:00 +8°C° 0.1 mm 2 m/S 739 mmHg 83%
07:00 +9°C° 0.1 mm 1 m/S 740 mmHg 85%
08:00 +9°C° 0.1 mm 1 m/S 740 mmHg 85%
09:00 +9°C° 0.1 mm 1 m/S 740 mmHg 85%
10:00 +9°C° 0.1 mm 1 m/S 740 mmHg 85%
11:00 +9°C° 0.1 mm 1 m/S 740 mmHg 85%
12:00 +9°C° 0.1 mm 1 m/S 740 mmHg 85%
13:00 +9°C° 0.1 mm 1 m/S 740 mmHg 85%
14:00 +9°C° 0.1 mm 1 m/S 740 mmHg 85%
15:00 +8°C° 0.1 mm 0 m/S 740 mmHg 85%
16:00 +8°C° 0.1 mm 0 m/S 740 mmHg 86%
17:00 +8°C° 0 mm 0 m/S 741 mmHg 86%
18:00 +8°C° 0 mm 0 m/S 741 mmHg 86%
19:00 +8°C° 0 mm 0 m/S 741 mmHg 86%
20:00 +7°C° 0 mm 0 m/S 742 mmHg 86%
21:00 +7°C° 0 mm 0 m/S 742 mmHg 87%
22:00 +8°C° 0 mm 1 m/S 742 mmHg 88%
23:00 +7°C° 0 mm 0 m/S 742 mmHg 89%

5 November, Donnerstag

Zeit Temperatur Niederschläge Wind Luftdruck Luftfeuchtigkeit
00:00 +6°C° 0 mm 0 m/S 742 mmHg 90%
01:00 +6°C° 0 mm 0 m/S 742 mmHg 90%
02:00 +7°C° 0 mm 1 m/S 742 mmHg 89%
03:00 +7°C° 0 mm 1 m/S 742 mmHg 88%
04:00 +7°C° 0 mm 1 m/S 742 mmHg 87%
05:00 +7°C° 0 mm 1 m/S 743 mmHg 87%
06:00 +7°C° 0 mm 1 m/S 743 mmHg 86%
07:00 +7°C° 0 mm 1 m/S 743 mmHg 86%
08:00 +6°C° 0 mm 2 m/S 743 mmHg 83%
09:00 +7°C° 0 mm 2 m/S 744 mmHg 79%
10:00 +7°C° 0 mm 2 m/S 744 mmHg 76%
11:00 +8°C° 0 mm 2 m/S 744 mmHg 73%
12:00 +8°C° 0 mm 2 m/S 744 mmHg 69%
13:00 +9°C° 0 mm 2 m/S 744 mmHg 65%
14:00 +8°C° 0 mm 2 m/S 744 mmHg 68%
15:00 +7°C° 0 mm 2 m/S 744 mmHg 71%
16:00 +6°C° 0 mm 2 m/S 744 mmHg 74%
17:00 +5°C° 0 mm 2 m/S 744 mmHg 77%
18:00 +5°C° 0 mm 2 m/S 744 mmHg 79%
19:00 +4°C° 0 mm 2 m/S 745 mmHg 81%
20:00 +4°C° 0 mm 2 m/S 745 mmHg 83%
21:00 +4°C° 0 mm 1 m/S 745 mmHg 85%
22:00 +4°C° 0 mm 1 m/S 745 mmHg 87%
23:00 +4°C° 0 mm 1 m/S 745 mmHg 89%
Mehr zeigen

Wir brauchen deine Erlaubnis

Meteoprog und unser Service Anbieter werden persönliche Daten aufbewahren, so wie Cookies, Geräte Bezeichnung oder ähnliche Technologien von deinem Gerät und Prozess, so wie Persönliche Daten Inhalte und Werbungen, genauso wie social Media und den Verkehr zu analysieren.

  • Aufbewahrung und/oder Zugang zu deiner Geräte Informationen.

    Cookies, Geräte Bezeichnung oder andere Informationen, können aufbewahrt oder Zugang zu deinem Gerät erhalten, für den Grund, der oben angegeben wird.

  • Personalisierte Werbung und Inhalte, Messungen, Einblick in das Publikum und Produkt Entwicklung.

    Werbungen und Inhalte können personalisiert werden, basierend auf ein Profil. Mehr Daten können besser personalisierte Werbungen und Inhalte hinzufügen. Werbung und Inhalte können gezeigt und gemessen werden. Einblicke über das Publikum, welche die Werbung gesehen haben und den Inhalt, können abgeleitet werden. So wie Daten können genutzt werden, um es zu verbessern oder die Benutzer Erfahrung zu verbessern das System und die Software.

Wenn du “Ich stimme zu” klickst, erlaubst du uns, die Cookies zu benutzen die Geräte Bezeichnung, den Web oder ähnliche Technologien zu benutzen. Deine Settings, können in deinem Gerät bei deinem Browser geändert werden.

Für den bestimmten Zweck, berechtigten Interessen beruhen darauf, mehr als auf den Inhalt. Du kannst mehr darüber in unseren Privaten und Cookie Politik lesen.